Weather in Makiivka

Ukraine / Chernihiv Region     50°25′20″N   32°29′53″E
temp.,
°C
wind,
m/s
gust,
m/s
humid.,
%
clouds,
%
prec.,
mm/h
press.,
hPa
HPBL,
m
9 may, sun
sun900:00+4wnw614885 0.0 1016505
03:00+3wnw514890 0.0 1018426
06:00+2wnw512890 0.0 1020337
09:00+7nw610711 0.0 1022885
12:00+11nw710538 0.0 10221992
15:00+12nw79465 0.0 10232293
18:00+11nnw57555 0.0 10241720
21:00+6n33670 0.0 102628
10 may, mon
mon1000:00+5n22675 0.0 102810
03:00+4nnw116625 0.0 102810
06:00+4nne22680 0.0 102913
09:00+10nne23560 0.0 1030395
12:00+13n44460 0.0 10291312
15:00+15nne56465 0.0 10281591
18:00+14nne46592 0.0 10261359
21:00+8nne35750 0.0 102771
11 may, tue
tue1100:00+7nne37810 0.0 1026106
03:00+5n411800 0.0 1026213
06:00+7nne61269100 0.0 1024332
09:00+9nne61272100 0.0 1023381
12:00+16ne796590 0.0 1022799
15:00+17ne7106886 0.0 10201297
18:00+13ene511840 0.7 1021679
21:00+10e4109096 0.7 1021293
12 may, wed
wed1200:00+8ene4118676 0.0 1021289
03:00+6ne4119410 0.0 1020241
06:00+7ene512905 0.0 1018375
09:00+10e7977100 0.0 1017932
12:00+9e6108489 0.3 1017821
15:00+9e71188100 1.1 1016858
18:00+10e61187100 0.6 1015987
21:00+9e61194100 1.5 1015522
13 may, thu
thu1300:00+9e61196100 2.0 1013502
03:00+8ese599650 2.8 1012326
06:00+7se499722 0.1 1012279
09:00+11sse587821 0.1 1012650
12:00+15sse6763100 0.1 10131501
15:00+15sse6762100 0.1 10131286
18:00+15e267183 0.2 1012752
21:00+13ene4880100 0.3 1012173